Barrow, AK

12:52 AM AKST on November 25, 2017 (GMT -0900)
Wiley Post-Will Rogers Memorial

Weather History for PABR - March, 2013

Change the Weather History Date:

Saturday, March 9, 2013

  Actual Average Record
Temperature  
Mean Temperature 6 °F -14 °F  
Max Temperature 8 °F -8 °F 31 °F (1965)
Min Temperature 4 °F -21 °F -42 °F (1959)
Degree Days  
Heating Degree Days 59 79  
Month to date heating degree days 660 711  
Since 1 July heating degree days 12633 13568  
Cooling Degree Days 0 0  
Month to date cooling degree days 0 0  
Year to date cooling degree days 0 0  
Moisture  
Dew Point 1 °F    
Average Humidity 0    
Maximum Humidity 0    
Minimum Humidity 0    
Precipitation  
Precipitation 0.01 in 0.01 in 0.20 in (1925)
Month to date precipitation 0.01 0.03  
Year to date precipitation 0.14 0.30  
Snow  
Snow 0.20 in 0.10 in 2.00 in (1925)
Month to date snowfall 0.4 0.7  
Since 1 July snowfall 44.4 29.7  
Snow Depth 5.00 in    
Sea Level Pressure  
Sea Level Pressure 29.80 in    
Wind  
Wind Speed 22 mph (East)    
Max Wind Speed 28 mph    
Max Gust Speed 32 mph    
Visibility 5 miles    
Events Snow    
T = Trace of Precipitation, MM = Missing Value Source: NWS Daily Summary

Daily Weather History Graph

Daily Weather History Graph

Search for Another Location

Airport or City:

Trip Planner

Search our weather history database for the weather conditions in past years. The results will help you decide how hot, cold, wet, or windy it might be!

Date:

Astronomy

Mar. 09, 2013 Rise Set
Actual Time 8:17 AM AKST 6:59 PM AKST
Civil Twilight 7:12 AM AKST 8:04 PM AKST
Nautical Twilight 5:55 AM AKST 9:22 PM AKST
Astronomical Twilight 4:25 AM AKST 10:54 PM AKST
Moon 7:45 AM AKST (3/9) 4:30 PM AKST (3/9)
Length of Visible Light 12h 51m
Length of Day
10h 42m
Waning Crescent, 5% of the Moon is Illuminated
Mar 9
Waning Crescent
Mar 11
New
Mar 19
First Quarter
Mar 27
Full
Apr 2
Last Quarter

Hourly Weather History & Observations

Time (AKST) Temp. Windchill Dew Point Humidity Pressure Visibility Wind Dir Wind Speed Gust Speed Precip Events Conditions
12:00 AM 5.0 °F -17.5 °F 1.4 °F 85% 29.67 in 5.0 mi East 25.3 mph 33.4 mph N/A Snow Blowing Snow
12:53 AM 5.0 °F -14.2 °F 1.0 °F 84% 29.70 in 8.0 mi East 17.3 mph - N/A   Overcast
1:53 AM 5.0 °F -16.2 °F 1.0 °F 84% 29.69 in 8.0 mi East 21.9 mph - N/A   Overcast
2:53 AM 5.0 °F -17.1 °F 1.0 °F 84% 29.69 in 9.0 mi East 24.2 mph - N/A   Overcast
3:53 AM 3.9 °F -18.1 °F -0.0 °F 84% 29.70 in 9.0 mi East 23.0 mph - N/A   Overcast
4:53 AM 3.9 °F -19.0 °F -0.0 °F 84% 29.69 in 4.0 mi East 25.3 mph - N/A Snow Blowing Snow
5:53 AM 3.9 °F -17.6 °F -0.0 °F 84% 29.71 in 8.0 mi East 21.9 mph - N/A   Overcast
6:53 AM 3.9 °F -18.5 °F -0.0 °F 84% 29.71 in 7.0 mi East 24.2 mph - N/A   Overcast
7:53 AM 3.9 °F -17.6 °F -0.0 °F 84% 29.72 in 8.0 mi East 21.9 mph - N/A   Overcast
8:53 AM 3.9 °F -18.5 °F 1.0 °F 88% 29.72 in 1.8 mi East 24.2 mph - 0.00 in Snow Light Snow
9:53 AM 5.0 °F -17.9 °F 1.0 °F 84% 29.73 in 1.0 mi East 26.5 mph - 0.00 in Snow Light Snow
10:53 AM 5.0 °F -16.7 °F 1.9 °F 87% 29.75 in 3.0 mi East 23.0 mph - 0.00 in Snow Light Snow
11:53 AM 6.1 °F -15.2 °F 1.9 °F 83% 29.75 in 3.0 mi East 23.0 mph - 0.00 in Snow Light Snow
12:53 PM 6.1 °F -14.3 °F 1.9 °F 83% 29.77 in 3.0 mi East 20.7 mph - 0.00 in Snow Blowing Snow
1:19 PM 6.8 °F -14.3 °F 3.2 °F 85% 29.76 in 2.0 mi East 23.0 mph - N/A Snow Blowing Snow
1:49 PM 6.8 °F -15.1 °F 3.2 °F 85% 29.78 in 3.0 mi East 25.3 mph - N/A Snow Blowing Snow
1:53 PM 7.0 °F -14.5 °F 3.9 °F 87% 29.78 in 3.0 mi East 24.2 mph - N/A Snow Blowing Snow
2:53 PM 8.1 °F -12.2 °F 3.9 °F 83% 29.80 in 6.0 mi East 21.9 mph - N/A Snow Blowing Snow
3:53 PM 7.0 °F -13.6 °F 3.0 °F 84% 29.81 in 9.0 mi East 21.9 mph - 0.00 in Snow Light Snow
4:09 PM 6.8 °F -12.9 °F 1.4 °F 79% 29.81 in 9.0 mi East 19.6 mph - 0.00 in Snow Blowing Snow
4:22 PM 6.8 °F -12.9 °F 1.4 °F 79% 29.82 in 9.0 mi East 19.6 mph - 0.00 in   Partly Cloudy
4:53 PM 6.1 °F -12.2 °F 1.9 °F 83% 29.83 in 10.0 mi East 16.1 mph - 0.00 in   Scattered Clouds
5:53 PM 3.9 °F -15.6 °F -0.0 °F 84% 29.85 in 10.0 mi East 17.3 mph - N/A   Scattered Clouds
6:53 PM 3.9 °F -16.1 °F -0.0 °F 84% 29.87 in 6.0 mi East 18.4 mph - N/A Snow Blowing Snow
7:53 PM 5.0 °F -15.7 °F 1.0 °F 84% 29.88 in 4.0 mi East 20.7 mph - 0.00 in Snow Light Snow
8:11 PM 5.0 °F -16.2 °F 1.4 °F 85% 29.88 in 2.0 mi East 21.9 mph - 0.00 in Snow Light Snow
8:28 PM 5.0 °F -16.2 °F 1.4 °F 85% 29.88 in 1.0 mi East 21.9 mph - 0.00 in Snow Light Snow
8:53 PM 3.9 °F -18.1 °F -0.0 °F 84% 29.90 in 1.8 mi East 23.0 mph - 0.00 in Snow Light Snow
9:06 PM 3.2 °F -19.0 °F -0.4 °F 85% 29.90 in 2.0 mi East 23.0 mph - 0.00 in Snow Light Snow
9:48 PM 3.2 °F -18.1 °F -0.4 °F 85% 29.92 in 3.0 mi East 20.7 mph - 0.00 in Snow Blowing Snow
9:53 PM 3.9 °F -17.1 °F -0.0 °F 84% 29.93 in 4.0 mi East 20.7 mph - 0.00 in Snow Blowing Snow
10:51 PM 3.2 °F -17.6 °F 1.4 °F 92% 29.95 in 4.0 mi East 19.6 mph - N/A Snow Blowing Snow
10:53 PM 3.9 °F -16.1 °F 1.0 °F 88% 29.96 in 4.0 mi East 18.4 mph - N/A Snow Blowing Snow
11:53 PM 3.9 °F -17.1 °F -0.0 °F 84% 29.99 in 7.0 mi East 20.7 mph - N/A   Clear